[Iaude] MPEC M12: 2024 LY5 [a=1.60,e=0.32,i=6.2,H=24.8]

mpec at cfa.harvard.edu mpec at cfa.harvard.edu
Mon Jun 17 09:58:04 EDT 2024


M.P.E.C. 2024-M12                                 Issued 2024 June 17, 13:56 UT

     The Minor Planet Electronic Circulars contain information on unusual
         minor planets, routine data on comets and natural satellites,
         and occasional editorial announcements.  They are published
    on behalf of Division F of the International Astronomical Union by the
          Minor Planet Center, Smithsonian Astrophysical Observatory,
                          Cambridge, MA 02138, U.S.A.
			  
             Prepared using the Tamkin Foundation Computer Network

                              MPC at CFA.HARVARD.EDU
            URL https://www.minorplanetcenter.net/    ISSN 1523-6714

                                    2024 LY5                                    


Observations:
     K24L05Y* C2024 06 13.29401616 53 35.284+31 00 52.90         21.96wXEM012F52
     K24L05Y  C2024 06 13.30511116 53 37.916+31 00 21.82         21.95wXEM012F52
     K24L05Y  C2024 06 13.32731816 53 43.150+30 59 19.22         22.05wXEM012F52
     K24L05Y  C2024 06 13.41730216 54 03.969+30 54 58.08         21.49GVEM012F52
     K24L05Y  C2024 06 13.41795416 54 04.126+30 54 56.10         21.86GVEM012F52
     K24L05Y 1C2024 06 15.52363417 03 13.008+29 06 07.98         22.18GVEM012T12
     K24L05Y 1C2024 06 15.52714217 03 13.833+29 05 56.30         22.69GVEM012T12
     K24L05Y 1C2024 06 15.53135217 03 14.829+29 05 41.88         22.21GVEM012T12
     K24L05Y 1C2024 06 16.45260417 07 15.988+28 15 22.89         22.10GVEM012T12
     K24L05Y 1C2024 06 16.45452417 07 16.418+28 15 16.44         22.11GVEM012T12
     K24L05Y 1C2024 06 16.45805417 07 17.205+28 15 04.24         21.74GVEM012T12
     K24L05Y 1C2024 06 16.46008417 07 17.644+28 14 57.69         21.99GVEM012T12

Observer details:
F52 Pan-STARRS 2, Haleakala.  Observers J. Herman, T. Lowe, P. Minguez, A.
    Schultz, I. Smith.  Measurers K. Chambers, T. de Boer, J. Fairlamb, H.
    Gao, M. Huber, C.-C. Lin, E. Magnier, Y. Ramanjooloo, R. Wainscoat, R.
    Weryk.  1.8-m Ritchey-Chretien + CCD.
T12 University of Hawaii 88-inch telescope, Maunakea.  Observers Y.
    Ramanjooloo, J. Fairlamb, L. Benavitz, K. Toguchi-Tani.  Measurers R.
    Weryk, Y. Ramanjooloo, J. Fairlamb, R. Wainscoat.  2.24-m f/10.1 reflector
    + CCD.

Orbital elements:
2024 LY5                                                 Earth MOID = 0.1153 AU
Epoch 2024 Mar. 31.0 TT = JDT 2460400.5                 MPC                     
M 329.81433              (2000.0)            P               Q                  
n   0.48890053     Peri.  113.64012     -0.36101114     +0.92945774             
a   1.5958389      Node   134.96686     -0.88998289     -0.31903058             
e   0.3223901      Incl.    6.16825     -0.27857032     -0.18527761             
P   2.02           H   24.89          G   0.15           U   8                  
Residuals in seconds of arc
240613 F52  0.1+  0.0     240613 F52  0.0   0.1-    240616 T12  0.2+  0.0
240613 F52  0.0   0.0     240615 T12  0.0   0.1-    240616 T12  0.1+  0.0
240613 F52  0.1-  0.0     240615 T12  0.0   0.1+    240616 T12  0.0   0.2-
240613 F52  0.0   0.0     240615 T12  0.0   0.1-    240616 T12  0.3-  0.2+

Ephemeris:
2024 LY5                 a,e,i = 1.60, 0.32, 6                   q = 1.0814
Date    TT    R. A. (2000) Decl.     Delta      r    Elong.  Phase     V
2024 05 18    15 04 15.0 +40 09 30   0.1421  1.0890   119.7    53.8    22.8
...
2024 06 02    16 03 30.0 +37 50 54   0.1258  1.0814   119.4    54.8    22.6
...
2024 06 10    16 38 55.3 +33 30 26   0.1195  1.0848   122.9    51.8    22.4
...
2024 06 16    17 05 20.1 +28 40 15   0.1168  1.0907   127.4    47.7    22.2
2024 06 17    17 09 38.2 +27 44 30   0.1166  1.0920   128.3    46.9    22.2
2024 06 18    17 13 53.8 +26 46 48   0.1165  1.0933   129.2    46.1    22.2
...
2024 06 24    17 38 21.3 +20 25 50   0.1172  1.1029   135.4    40.3    22.0
...
2024 07 02    18 07 12.2 +11 02 16   0.1235  1.1197   144.7    31.6    21.9
...
2024 07 17    18 49 23.4 -05 22 46   0.1547  1.1621   159.1    18.2    22.1

A. U. Tomatic                (C) Copyright 2024 MPC           M.P.E.C. 2024-M12





More information about the Iaude mailing list